owner,sensor,date,latitude,longitude,vertical_datum,sea_water_temperature,qcFlag 
DISL,ioos:station:DISL:BSCA:1,2018-05-01T20:00:00Z,30.3288,-87.8293,0.0,22.8,2 
DISL,ioos:station:DISL:BSCA:1,2018-05-01T20:30:00Z,30.3288,-87.8293,0.0,22.89,2 
DISL,ioos:station:DISL:BSCA:1,2018-05-01T21:30:00Z,30.3288,-87.8293,0.0,23.02,2 
DISL,ioos:station:DISL:BSCA:1,2018-05-01T23:00:00Z,30.3288,-87.8293,0.0,23.07,2 
DISL,ioos:station:DISL:BSCA:1,2018-05-02T00:00:00Z,30.3288,-87.8293,0.0,23.04,2 
DISL,ioos:station:DISL:BSCA:1,2018-05-02T01:00:00Z,30.3288,-87.8293,0.0,22.95,2 
DISL,ioos:station:DISL:BSCA:1,2018-05-02T03:00:00Z,30.3288,-87.8293,0.0,22.84,2 
DISL,ioos:station:DISL:BSCA:1,2018-05-02T04:00:00Z,30.3288,-87.8293,0.0,22.78,2 
DISL,ioos:station:DISL:BSCA:1,2018-05-02T05:00:00Z,30.3288,-87.8293,0.0,22.75,2 
DISL,ioos:station:DISL:BSCA:1,2018-05-02T06:00:00Z,30.3288,-87.8293,0.0,22.72,2 
DISL,ioos:station:DISL:BSCA:1,2018-05-02T07:00:00Z,30.3288,-87.8293,0.0,22.71,2 
DISL,ioos:station:DISL:BSCA:1,2018-05-02T08:00:00Z,30.3288,-87.8293,0.0,22.7,2 
DISL,ioos:station:DISL:BSCA:1,2018-05-02T09:00:00Z,30.3288,-87.8293,0.0,22.64,2 
DISL,ioos:station:DISL:BSCA:1,2018-05-02T09:30:00Z,30.3288,-87.8293,0.0,22.6,2 
DISL,ioos:station:DISL:BSCA:1,2018-05-02T14:00:00Z,30.3288,-87.8293,0.0,22.42,2 
DISL,ioos:station:DISL:BSCA:1,2018-05-02T15:00:00Z,30.3288,-87.8293,0.0,22.58,2 
DISL,ioos:station:DISL:BSCA:1,2018-05-02T16:00:00Z,30.3288,-87.8293,0.0,22.92,2 
DISL,ioos:station:DISL:BSCA:1,2018-05-02T16:30:00Z,30.3288,-87.8293,0.0,23.04,2 
DISL,ioos:station:DISL:BSCA:1,2018-05-02T17:00:00Z,30.3288,-87.8293,0.0,23.05,2 
DISL,ioos:station:DISL:BSCA:1,2018-05-03T05:00:00Z,30.3288,-87.8293,0.0,23.56,2 
DISL,ioos:station:DISL:BSCA:1,2018-05-03T05:30:00Z,30.3288,-87.8293,0.0,23.43,2 
DISL,ioos:station:DISL:BSCA:1,2018-05-03T07:00:00Z,30.3288,-87.8293,0.0,23.29,2 
DISL,ioos:station:DISL:BSCA:1,2018-05-03T08:00:00Z,30.3288,-87.8293,0.0,23.37,2 
DISL,ioos:station:DISL:BSCA:1,2018-05-03T09:00:00Z,30.3288,-87.8293,0.0,23.39,2 
DISL,ioos:station:DISL:BSCA:1,2018-05-03T09:30:00Z,30.3288,-87.8293,0.0,23.34,2 
DISL,ioos:station:DISL:BSCA:1,2018-05-03T11:00:00Z,30.3288,-87.8293,0.0,23.21,2 
DISL,ioos:station:DISL:BSCA:1,2018-05-03T12:00:00Z,30.3288,-87.8293,0.0,23.23,2 
DISL,ioos:station:DISL:BSCA:1,2018-05-05T23:00:00Z,30.3288,-87.8293,0.0,23.72,2 
DISL,ioos:station:DISL:BSCA:1,2018-05-06T00:00:00Z,30.3288,-87.8293,0.0,23.71,2 
DISL,ioos:station:DISL:BSCA:1,2018-05-06T01:00:00Z,30.3288,-87.8293,0.0,24.01,2 
DISL,ioos:station:DISL:BSCA:1,2018-05-06T02:00:00Z,30.3288,-87.8293,0.0,23.63,2 
DISL,ioos:station:DISL:BSCA:1,2018-05-06T03:00:00Z,30.3288,-87.8293,0.0,24.09,2 
DISL,ioos:station:DISL:BSCA:1,2018-05-06T04:00:00Z,30.3288,-87.8293,0.0,24.47,2 
DISL,ioos:station:DISL:BSCA:1,2018-05-06T05:00:00Z,30.3288,-87.8293,0.0,23.6,2 
DISL,ioos:station:DISL:BSCA:1,2018-05-06T06:00:00Z,30.3288,-87.8293,0.0,23.38,2 
DISL,ioos:station:DISL:BSCA:1,2018-05-06T07:00:00Z,30.3288,-87.8293,0.0,23.39,2 
DISL,ioos:station:DISL:BSCA:1,2018-05-06T08:00:00Z,30.3288,-87.8293,0.0,23.52,2 
DISL,ioos:station:DISL:BSCA:1,2018-05-06T09:00:00Z,30.3288,-87.8293,0.0,23.7,2 
DISL,ioos:station:DISL:BSCA:1,2018-05-06T17:00:00Z,30.3288,-87.8293,0.0,24.34,2 
DISL,ioos:station:DISL:BSCA:1,2018-05-06T18:00:00Z,30.3288,-87.8293,0.0,24.55,2 
DISL,ioos:station:DISL:BSCA:1,2018-05-06T19:00:00Z,30.3288,-87.8293,0.0,24.66,2 
DISL,ioos:station:DISL:BSCA:1,2018-05-06T20:00:00Z,30.3288,-87.8293,0.0,24.71,2 
DISL,ioos:station:DISL:BSCA:1,2018-05-06T21:00:00Z,30.3288,-87.8293,0.0,24.74,2 
DISL,ioos:station:DISL:BSCA:1,2018-05-06T22:00:00Z,30.3288,-87.8293,0.0,24.96,2 
DISL,ioos:station:DISL:BSCA:1,2018-05-06T23:00:00Z,30.3288,-87.8293,0.0,25.4,2 
DISL,ioos:station:DISL:BSCA:1,2018-05-07T00:00:00Z,30.3288,-87.8293,0.0,25.46,2 
DISL,ioos:station:DISL:BSCA:1,2018-05-07T01:00:00Z,30.3288,-87.8293,0.0,25.47,2 
DISL,ioos:station:DISL:BSCA:1,2018-05-07T02:00:00Z,30.3288,-87.8293,0.0,25.41,2 
DISL,ioos:station:DISL:BSCA:1,2018-05-07T03:00:00Z,30.3288,-87.8293,0.0,25.4,2 
DISL,ioos:station:DISL:BSCA:1,2018-05-07T04:00:00Z,30.3288,-87.8293,0.0,25.33,2 
DISL,ioos:station:DISL:BSCA:1,2018-05-07T05:00:00Z,30.3288,-87.8293,0.0,25.25,2 
DISL,ioos:station:DISL:BSCA:1,2018-05-07T06:00:00Z,30.3288,-87.8293,0.0,25.14,2 
DISL,ioos:station:DISL:BSCA:1,2018-05-07T07:00:00Z,30.3288,-87.8293,0.0,25.06,2 
DISL,ioos:station:DISL:BSCA:1,2018-05-07T08:00:00Z,30.3288,-87.8293,0.0,24.95,2 
DISL,ioos:station:DISL:BSCA:1,2018-05-07T09:00:00Z,30.3288,-87.8293,0.0,24.87,2 
DISL,ioos:station:DISL:BSCA:1,2018-05-07T10:00:00Z,30.3288,-87.8293,0.0,24.74,2 
DISL,ioos:station:DISL:BSCA:1,2018-05-07T11:00:00Z,30.3288,-87.8293,0.0,24.6,2 
DISL,ioos:station:DISL:BSCA:1,2018-05-07T12:00:00Z,30.3288,-87.8293,0.0,24.47,2 
DISL,ioos:station:DISL:BSCA:1,2018-05-07T14:30:00Z,30.3288,-87.8293,0.0,24.46,2 
DISL,ioos:station:DISL:BSCA:1,2018-05-07T16:00:00Z,30.3288,-87.8293,0.0,24.42,2 
DISL,ioos:station:DISL:BSCA:1,2018-05-07T17:00:00Z,30.3288,-87.8293,0.0,24.41,2 
DISL,ioos:station:DISL:BSCA:1,2018-05-07T18:00:00Z,30.3288,-87.8293,0.0,24.75,2 
DISL,ioos:station:DISL:BSCA:1,2018-05-07T19:00:00Z,30.3288,-87.8293,0.0,24.89,2 
DISL,ioos:station:DISL:BSCA:1,2018-05-07T20:00:00Z,30.3288,-87.8293,0.0,25.22,2 
DISL,ioos:station:DISL:BSCA:1,2018-05-07T21:00:00Z,30.3288,-87.8293,0.0,25.35,2 
DISL,ioos:station:DISL:BSCA:1,2018-05-07T22:00:00Z,30.3288,-87.8293,0.0,25.63,2 
DISL,ioos:station:DISL:BSCA:1,2018-05-07T23:00:00Z,30.3288,-87.8293,0.0,25.68,2 
DISL,ioos:station:DISL:BSCA:1,2018-05-08T00:00:00Z,30.3288,-87.8293,0.0,25.67,2 
DISL,ioos:station:DISL:BSCA:1,2018-05-08T01:00:00Z,30.3288,-87.8293,0.0,25.63,2 
DISL,ioos:station:DISL:BSCA:1,2018-05-08T01:30:00Z,30.3288,-87.8293,0.0,25.59,2 
DISL,ioos:station:DISL:BSCA:1,2018-05-08T02:30:00Z,30.3288,-87.8293,0.0,25.58,2 
DISL,ioos:station:DISL:BSCA:1,2018-05-08T03:30:00Z,30.3288,-87.8293,0.0,25.55,2 
DISL,ioos:station:DISL:BSCA:1,2018-05-08T04:30:00Z,30.3288,-87.8293,0.0,25.46,2 
DISL,ioos:station:DISL:BSCA:1,2018-05-08T05:30:00Z,30.3288,-87.8293,0.0,25.45,2 
DISL,ioos:station:DISL:BSCA:1,2018-05-08T07:00:00Z,30.3288,-87.8293,0.0,25.34,2 
DISL,ioos:station:DISL:BSCA:1,2018-05-08T08:00:00Z,30.3288,-87.8293,0.0,25.3,2 
DISL,ioos:station:DISL:BSCA:1,2018-05-08T08:30:00Z,30.3288,-87.8293,0.0,25.28,2 
DISL,ioos:station:DISL:BSCA:1,2018-05-08T12:00:00Z,30.3288,-87.8293,0.0,25.27,2 
DISL,ioos:station:DISL:BSCA:1,2018-05-08T13:00:00Z,30.3288,-87.8293,0.0,25.1,2 
DISL,ioos:station:DISL:BSCA:1,2018-05-08T14:00:00Z,30.3288,-87.8293,0.0,25.08,2 
DISL,ioos:station:DISL:BSCA:1,2018-05-08T15:00:00Z,30.3288,-87.8293,0.0,24.14,2 
DISL,ioos:station:DISL:BSCA:1,2018-05-08T16:00:00Z,30.3288,-87.8293,0.0,24.99,2 
DISL,ioos:station:DISL:BSCA:1,2018-05-08T17:00:00Z,30.3288,-87.8293,0.0,25.0,2 
DISL,ioos:station:DISL:BSCA:1,2018-05-08T18:00:00Z,30.3288,-87.8293,0.0,25.0,2 
DISL,ioos:station:DISL:BSCA:1,2018-05-08T19:00:00Z,30.3288,-87.8293,0.0,25.02,2 
DISL,ioos:station:DISL:BSCA:1,2018-05-08T20:00:00Z,30.3288,-87.8293,0.0,25.11,2 
DISL,ioos:station:DISL:BSCA:1,2018-05-08T21:00:00Z,30.3288,-87.8293,0.0,25.25,2 
DISL,ioos:station:DISL:BSCA:1,2018-05-08T22:00:00Z,30.3288,-87.8293,0.0,25.32,2 
DISL,ioos:station:DISL:BSCA:1,2018-05-08T23:00:00Z,30.3288,-87.8293,0.0,26.98,2 
DISL,ioos:station:DISL:BSCA:1,2018-05-09T00:00:00Z,30.3288,-87.8293,0.0,26.91,2 
DISL,ioos:station:DISL:BSCA:1,2018-05-09T01:00:00Z,30.3288,-87.8293,0.0,26.69,2 
DISL,ioos:station:DISL:BSCA:1,2018-05-09T01:30:00Z,30.3288,-87.8293,0.0,26.98,2 
DISL,ioos:station:DISL:BSCA:1,2018-05-09T02:30:00Z,30.3288,-87.8293,0.0,26.91,2 
DISL,ioos:station:DISL:BSCA:1,2018-05-09T03:30:00Z,30.3288,-87.8293,0.0,26.89,2 
DISL,ioos:station:DISL:BSCA:1,2018-05-09T04:30:00Z,30.3288,-87.8293,0.0,26.88,2 
DISL,ioos:station:DISL:BSCA:1,2018-05-09T05:00:00Z,30.3288,-87.8293,0.0,26.86,2 
DISL,ioos:station:DISL:BSCA:1,2018-05-09T09:30:00Z,30.3288,-87.8293,0.0,26.49,2 
DISL,ioos:station:DISL:BSCA:1,2018-05-09T17:00:00Z,30.3288,-87.8293,0.0,26.07,2 
DISL,ioos:station:DISL:BSCA:1,2018-05-09T18:00:00Z,30.3288,-87.8293,0.0,26.02,2 
DISL,ioos:station:DISL:BSCA:1,2018-05-09T19:00:00Z,30.3288,-87.8293,0.0,26.07,2 
DISL,ioos:station:DISL:BSCA:1,2018-05-09T20:00:00Z,30.3288,-87.8293,0.0,26.28,2 
DISL,ioos:station:DISL:BSCA:1,2018-05-09T21:00:00Z,30.3288,-87.8293,0.0,26.78,2 
DISL,ioos:station:DISL:BSCA:1,2018-05-09T22:00:00Z,30.3288,-87.8293,0.0,27.73,2 
DISL,ioos:station:DISL:BSCA:1,2018-05-09T23:00:00Z,30.3288,-87.8293,0.0,27.74,2 
DISL,ioos:station:DISL:BSCA:1,2018-05-10T00:00:00Z,30.3288,-87.8293,0.0,27.71,2 
DISL,ioos:station:DISL:BSCA:1,2018-05-10T01:00:00Z,30.3288,-87.8293,0.0,27.57,2 
DISL,ioos:station:DISL:BSCA:1,2018-05-10T02:00:00Z,30.3288,-87.8293,0.0,27.45,2 
DISL,ioos:station:DISL:BSCA:1,2018-05-10T03:00:00Z,30.3288,-87.8293,0.0,27.34,2 
DISL,ioos:station:DISL:BSCA:1,2018-05-10T04:00:00Z,30.3288,-87.8293,0.0,27.26,2 
DISL,ioos:station:DISL:BSCA:1,2018-05-10T05:00:00Z,30.3288,-87.8293,0.0,27.17,2 
DISL,ioos:station:DISL:BSCA:1,2018-05-10T06:00:00Z,30.3288,-87.8293,0.0,27.08,2 
DISL,ioos:station:DISL:BSCA:1,2018-05-10T07:00:00Z,30.3288,-87.8293,0.0,26.98,2 
DISL,ioos:station:DISL:BSCA:1,2018-05-10T08:00:00Z,30.3288,-87.8293,0.0,26.93,2 
DISL,ioos:station:DISL:BSCA:1,2018-05-10T09:00:00Z,30.3288,-87.8293,0.0,26.83,2 
DISL,ioos:station:DISL:BSCA:1,2018-05-10T10:00:00Z,30.3288,-87.8293,0.0,26.8,2 
DISL,ioos:station:DISL:BSCA:1,2018-05-10T11:00:00Z,30.3288,-87.8293,0.0,26.74,2 
DISL,ioos:station:DISL:BSCA:1,2018-05-10T12:00:00Z,30.3288,-87.8293,0.0,26.67,2 
DISL,ioos:station:DISL:BSCA:1,2018-05-10T12:30:00Z,30.3288,-87.8293,0.0,26.72,2 
DISL,ioos:station:DISL:BSCA:1,2018-05-11T00:00:00Z,30.3288,-87.8293,0.0,27.24,2 
DISL,ioos:station:DISL:BSCA:1,2018-05-11T01:00:00Z,30.3288,-87.8293,0.0,27.49,2 
DISL,ioos:station:DISL:BSCA:1,2018-05-11T02:00:00Z,30.3288,-87.8293,0.0,27.74,2 
DISL,ioos:station:DISL:BSCA:1,2018-05-11T03:00:00Z,30.3288,-87.8293,0.0,27.53,2 
DISL,ioos:station:DISL:BSCA:1,2018-05-11T03:30:00Z,30.3288,-87.8293,0.0,27.43,2 
DISL,ioos:station:DISL:BSCA:1,2018-05-11T04:30:00Z,30.3288,-87.8293,0.0,27.25,2 
DISL,ioos:station:DISL:BSCA:1,2018-05-12T00:00:00Z,30.3288,-87.8293,0.0,27.39,2 
DISL,ioos:station:DISL:BSCA:1,2018-05-12T01:00:00Z,30.3288,-87.8293,0.0,28.12,2 
DISL,ioos:station:DISL:BSCA:1,2018-05-12T02:00:00Z,30.3288,-87.8293,0.0,28.28,2 
DISL,ioos:station:DISL:BSCA:1,2018-05-12T03:00:00Z,30.3288,-87.8293,0.0,28.15,2 
DISL,ioos:station:DISL:BSCA:1,2018-05-12T04:00:00Z,30.3288,-87.8293,0.0,27.9,2 
DISL,ioos:station:DISL:BSCA:1,2018-05-12T05:00:00Z,30.3288,-87.8293,0.0,27.73,2 
DISL,ioos:station:DISL:BSCA:1,2018-05-12T06:00:00Z,30.3288,-87.8293,0.0,27.6,2 
DISL,ioos:station:DISL:BSCA:1,2018-05-12T06:30:00Z,30.3288,-87.8293,0.0,27.58,2 
DISL,ioos:station:DISL:BSCA:1,2018-05-12T12:30:00Z,30.3288,-87.8293,0.0,27.38,2 
DISL,ioos:station:DISL:BSCA:1,2018-05-12T16:30:00Z,30.3288,-87.8293,0.0,27.3,2 
DISL,ioos:station:DISL:BSCA:1,2018-05-12T20:00:00Z,30.3288,-87.8293,0.0,28.29,2 
DISL,ioos:station:DISL:BSCA:1,2018-05-12T21:00:00Z,30.3288,-87.8293,0.0,28.61,2 
DISL,ioos:station:DISL:BSCA:1,2018-05-12T21:30:00Z,30.3288,-87.8293,0.0,28.68,2 
DISL,ioos:station:DISL:BSCA:1,2018-05-13T16:00:00Z,30.3288,-87.8293,0.0,27.14,2 
DISL,ioos:station:DISL:BSCA:1,2018-05-13T17:00:00Z,30.3288,-87.8293,0.0,27.22,2 
DISL,ioos:station:DISL:BSCA:1,2018-05-13T18:00:00Z,30.3288,-87.8293,0.0,27.57,2 
DISL,ioos:station:DISL:BSCA:1,2018-05-13T19:00:00Z,30.3288,-87.8293,0.0,27.76,2 
DISL,ioos:station:DISL:BSCA:1,2018-05-13T20:00:00Z,30.3288,-87.8293,0.0,28.02,2 
DISL,ioos:station:DISL:BSCA:1,2018-05-13T21:00:00Z,30.3288,-87.8293,0.0,28.15,2 
DISL,ioos:station:DISL:BSCA:1,2018-05-13T22:00:00Z,30.3288,-87.8293,0.0,28.19,2 
DISL,ioos:station:DISL:BSCA:1,2018-05-13T23:00:00Z,30.3288,-87.8293,0.0,28.19,2 
DISL,ioos:station:DISL:BSCA:1,2018-05-14T00:00:00Z,30.3288,-87.8293,0.0,28.07,2 
DISL,ioos:station:DISL:BSCA:1,2018-05-14T01:00:00Z,30.3288,-87.8293,0.0,27.97,2 
DISL,ioos:station:DISL:BSCA:1,2018-05-14T02:00:00Z,30.3288,-87.8293,0.0,27.88,2 
DISL,ioos:station:DISL:BSCA:1,2018-05-14T03:00:00Z,30.3288,-87.8293,0.0,27.77,2 
DISL,ioos:station:DISL:BSCA:1,2018-05-14T04:00:00Z,30.3288,-87.8293,0.0,27.73,2 
DISL,ioos:station:DISL:BSCA:1,2018-05-14T05:00:00Z,30.3288,-87.8293,0.0,27.62,2 
DISL,ioos:station:DISL:BSCA:1,2018-05-14T05:30:00Z,30.3288,-87.8293,0.0,27.6,2 
DISL,ioos:station:DISL:BSCA:1,2018-05-14T19:30:00Z,30.3288,-87.8293,0.0,27.51,2 
DISL,ioos:station:DISL:BSCA:1,2018-05-14T21:00:00Z,30.3288,-87.8293,0.0,27.79,2 
DISL,ioos:station:DISL:BSCA:1,2018-05-14T22:00:00Z,30.3288,-87.8293,0.0,28.6,2 
DISL,ioos:station:DISL:BSCA:1,2018-05-14T23:00:00Z,30.3288,-87.8293,0.0,28.68,2 
DISL,ioos:station:DISL:BSCA:1,2018-05-14T23:30:00Z,30.3288,-87.8293,0.0,28.42,2 
DISL,ioos:station:DISL:BSCA:1,2018-05-15T02:00:00Z,30.3288,-87.8293,0.0,27.96,2 
DISL,ioos:station:DISL:BSCA:1,2018-05-18T17:30:00Z,30.3288,-87.8293,0.0,27.09,11111222 
DISL,ioos:station:DISL:BSCA:1,2018-05-18T22:00:00Z,30.3288,-87.8293,0.0,28.02,11111222 
DISL,ioos:station:DISL:BSCA:1,2018-05-19T14:30:00Z,30.3288,-87.8293,0.0,27.47,11111222 
DISL,ioos:station:DISL:BSCA:1,2018-05-20T00:30:00Z,30.3288,-87.8293,0.0,28.8,11111222 
DISL,ioos:station:DISL:BSCA:1,2018-05-20T02:00:00Z,30.3288,-87.8293,0.0,28.74,11111222 
DISL,ioos:station:DISL:BSCA:1,2018-05-20T05:30:00Z,30.3288,-87.8293,0.0,28.63,11111222 
DISL,ioos:station:DISL:BSCA:1,2018-05-20T20:30:00Z,30.3288,-87.8293,0.0,28.16,11111222 
DISL,ioos:station:DISL:BSCA:1,2018-05-21T01:30:00Z,30.3288,-87.8293,0.0,28.69,11111222 
DISL,ioos:station:DISL:BSCA:1,2018-05-21T02:30:00Z,30.3288,-87.8293,0.0,28.58,11111222 
DISL,ioos:station:DISL:BSCA:1,2018-05-21T03:30:00Z,30.3288,-87.8293,0.0,28.46,11111222 
DISL,ioos:station:DISL:BSCA:1,2018-05-21T04:00:00Z,30.3288,-87.8293,0.0,28.47,11111222 
DISL,ioos:station:DISL:BSCA:1,2018-05-21T05:30:00Z,30.3288,-87.8293,0.0,28.34,11111222 
DISL,ioos:station:DISL:BSCA:1,2018-05-21T06:30:00Z,30.3288,-87.8293,0.0,28.28,11111222 
DISL,ioos:station:DISL:BSCA:1,2018-05-21T07:30:00Z,30.3288,-87.8293,0.0,28.17,11111222 
DISL,ioos:station:DISL:BSCA:1,2018-05-21T08:30:00Z,30.3288,-87.8293,0.0,28.07,11111222 
DISL,ioos:station:DISL:BSCA:1,2018-05-21T09:30:00Z,30.3288,-87.8293,0.0,27.94,11111222 
DISL,ioos:station:DISL:BSCA:1,2018-05-21T10:30:00Z,30.3288,-87.8293,0.0,27.78,11111222 
DISL,ioos:station:DISL:BSCA:1,2018-05-21T11:30:00Z,30.3288,-87.8293,0.0,27.72,11111222 
DISL,ioos:station:DISL:BSCA:1,2018-05-21T12:30:00Z,30.3288,-87.8293,0.0,27.73,11111222 
DISL,ioos:station:DISL:BSCA:1,2018-05-21T13:30:00Z,30.3288,-87.8293,0.0,27.75,11111222 
DISL,ioos:station:DISL:BSCA:1,2018-05-21T14:30:00Z,30.3288,-87.8293,0.0,27.83,11111222 
DISL,ioos:station:DISL:BSCA:1,2018-05-21T15:00:00Z,30.3288,-87.8293,0.0,27.86,11111222 
DISL,ioos:station:DISL:BSCA:1,2018-05-21T23:30:00Z,30.3288,-87.8293,0.0,27.96,11111222 
DISL,ioos:station:DISL:BSCA:1,2018-05-22T00:30:00Z,30.3288,-87.8293,0.0,28.4,11111222 
DISL,ioos:station:DISL:BSCA:1,2018-05-22T01:30:00Z,30.3288,-87.8293,0.0,28.42,11111222 
DISL,ioos:station:DISL:BSCA:1,2018-05-22T07:00:00Z,30.3288,-87.8293,0.0,28.37,11111222 
DISL,ioos:station:DISL:BSCA:1,2018-05-22T08:00:00Z,30.3288,-87.8293,0.0,28.32,11111222 
DISL,ioos:station:DISL:BSCA:1,2018-05-22T09:00:00Z,30.3288,-87.8293,0.0,28.26,11111222 
DISL,ioos:station:DISL:BSCA:1,2018-05-22T10:00:00Z,30.3288,-87.8293,0.0,28.05,11111222 
DISL,ioos:station:DISL:BSCA:1,2018-05-23T06:00:00Z,30.3288,-87.8293,0.0,29.63,11111222 
DISL,ioos:station:DISL:BSCA:1,2018-05-23T07:00:00Z,30.3288,-87.8293,0.0,29.59,11111222 
DISL,ioos:station:DISL:BSCA:1,2018-05-23T08:00:00Z,30.3288,-87.8293,0.0,29.47,11111222 
DISL,ioos:station:DISL:BSCA:1,2018-05-23T09:00:00Z,30.3288,-87.8293,0.0,29.33,11111222 
DISL,ioos:station:DISL:BSCA:1,2018-05-23T10:00:00Z,30.3288,-87.8293,0.0,29.23,11111222 
DISL,ioos:station:DISL:BSCA:1,2018-05-23T11:00:00Z,30.3288,-87.8293,0.0,29.16,11111222 
DISL,ioos:station:DISL:BSCA:1,2018-05-23T11:30:00Z,30.3288,-87.8293,0.0,29.15,11111222 
DISL,ioos:station:DISL:BSCA:1,2018-05-24T02:30:00Z,30.3288,-87.8293,0.0,29.44,11111222 
DISL,ioos:station:DISL:BSCA:1,2018-05-24T04:00:00Z,30.3288,-87.8293,0.0,29.53,11111222 
DISL,ioos:station:DISL:BSCA:1,2018-05-24T05:00:00Z,30.3288,-87.8293,0.0,29.43,11111222 
DISL,ioos:station:DISL:BSCA:1,2018-05-24T06:00:00Z,30.3288,-87.8293,0.0,29.16,11111222 
DISL,ioos:station:DISL:BSCA:1,2018-05-24T06:30:00Z,30.3288,-87.8293,0.0,29.14,11111222 
DISL,ioos:station:DISL:BSCA:1,2018-05-24T08:00:00Z,30.3288,-87.8293,0.0,28.73,11111222 
DISL,ioos:station:DISL:BSCA:1,2018-05-24T09:00:00Z,30.3288,-87.8293,0.0,28.79,11111222 
DISL,ioos:station:DISL:BSCA:1,2018-05-24T12:30:00Z,30.3288,-87.8293,0.0,28.5,11111222 
DISL,ioos:station:DISL:BSCA:1,2018-05-24T21:30:00Z,30.3288,-87.8293,0.0,28.73,11111222 
DISL,ioos:station:DISL:BSCA:1,2018-05-24T23:00:00Z,30.3288,-87.8293,0.0,29.15,11111222 
DISL,ioos:station:DISL:BSCA:1,2018-05-25T00:00:00Z,30.3288,-87.8293,0.0,29.83,11111222 
DISL,ioos:station:DISL:BSCA:1,2018-05-25T01:00:00Z,30.3288,-87.8293,0.0,30.54,11111222 
DISL,ioos:station:DISL:BSCA:1,2018-05-25T01:30:00Z,30.3288,-87.8293,0.0,30.45,11111222 
DISL,ioos:station:DISL:BSCA:1,2018-05-25T02:30:00Z,30.3288,-87.8293,0.0,29.64,11111222 
DISL,ioos:station:DISL:BSCA:1,2018-05-25T03:30:00Z,30.3288,-87.8293,0.0,29.59,11111222 
DISL,ioos:station:DISL:BSCA:1,2018-05-25T04:30:00Z,30.3288,-87.8293,0.0,29.97,11111222 
DISL,ioos:station:DISL:BSCA:1,2018-05-25T05:30:00Z,30.3288,-87.8293,0.0,29.9,11111222 
DISL,ioos:station:DISL:BSCA:1,2018-05-25T06:00:00Z,30.3288,-87.8293,0.0,29.67,11111222 
DISL,ioos:station:DISL:BSCA:1,2018-05-25T12:00:00Z,30.3288,-87.8293,0.0,28.63,11111222 
DISL,ioos:station:DISL:BSCA:1,2018-05-25T13:00:00Z,30.3288,-87.8293,0.0,28.37,11111222 
DISL,ioos:station:DISL:BSCA:1,2018-05-25T13:30:00Z,30.3288,-87.8293,0.0,28.36,11111222 
DISL,ioos:station:DISL:BSCA:1,2018-05-25T17:30:00Z,30.3288,-87.8293,0.0,28.84,11111222 
DISL,ioos:station:DISL:BSCA:1,2018-05-26T05:30:00Z,30.3288,-87.8293,0.0,28.89,11111222 
DISL,ioos:station:DISL:BSCA:1,2018-05-26T17:30:00Z,30.3288,-87.8293,0.0,28.15,11111222 
DISL,ioos:station:DISL:BSCA:1,2018-05-26T18:30:00Z,30.3288,-87.8293,0.0,27.94,11111222 
DISL,ioos:station:DISL:BSCA:1,2018-05-27T04:00:00Z,30.3288,-87.8293,0.0,27.91,11111222 
DISL,ioos:station:DISL:BSCA:1,2018-05-27T04:30:00Z,30.3288,-87.8293,0.0,27.83,11111222 
DISL,ioos:station:DISL:BSCA:1,2018-05-27T05:30:00Z,30.3288,-87.8293,0.0,27.73,11111222 
DISL,ioos:station:DISL:BSCA:1,2018-05-27T07:00:00Z,30.3288,-87.8293,0.0,27.55,11111222 
DISL,ioos:station:DISL:BSCA:1,2018-05-27T17:30:00Z,30.3288,-87.8293,0.0,27.89,11111222 
DISL,ioos:station:DISL:BSCA:1,2018-05-27T18:30:00Z,30.3288,-87.8293,0.0,28.1,11111222 
DISL,ioos:station:DISL:BSCA:1,2018-05-27T19:30:00Z,30.3288,-87.8293,0.0,28.19,11111222 
DISL,ioos:station:DISL:BSCA:1,2018-05-27T20:30:00Z,30.3288,-87.8293,0.0,28.27,11111222 
DISL,ioos:station:DISL:BSCA:1,2018-05-27T21:30:00Z,30.3288,-87.8293,0.0,28.39,11111222 
DISL,ioos:station:DISL:BSCA:1,2018-05-27T23:00:00Z,30.3288,-87.8293,0.0,28.32,11111222 
DISL,ioos:station:DISL:BSCA:1,2018-05-27T23:30:00Z,30.3288,-87.8293,0.0,28.27,11111222 
DISL,ioos:station:DISL:BSCA:1,2018-05-28T00:30:00Z,30.3288,-87.8293,0.0,28.09,11111222 
DISL,ioos:station:DISL:BSCA:1,2018-05-28T01:30:00Z,30.3288,-87.8293,0.0,27.98,11111222 
DISL,ioos:station:DISL:BSCA:1,2018-05-28T02:30:00Z,30.3288,-87.8293,0.0,27.92,11111222 
DISL,ioos:station:DISL:BSCA:1,2018-05-28T03:30:00Z,30.3288,-87.8293,0.0,27.83,11111222 
DISL,ioos:station:DISL:BSCA:1,2018-05-28T05:00:00Z,30.3288,-87.8293,0.0,27.63,11111222 
DISL,ioos:station:DISL:BSCA:1,2018-05-28T05:30:00Z,30.3288,-87.8293,0.0,27.59,11111222 
DISL,ioos:station:DISL:BSCA:1,2018-05-28T06:30:00Z,30.3288,-87.8293,0.0,27.46,11111222 
DISL,ioos:station:DISL:BSCA:1,2018-05-28T08:00:00Z,30.3288,-87.8293,0.0,27.35,11111222 
DISL,ioos:station:DISL:BSCA:1,2018-05-28T08:30:00Z,30.3288,-87.8293,0.0,27.29,11111222 
DISL,ioos:station:DISL:BSCA:1,2018-05-28T09:30:00Z,30.3288,-87.8293,0.0,27.19,11111222 
DISL,ioos:station:DISL:BSCA:1,2018-05-28T19:30:00Z,30.3288,-87.8293,0.0,27.42,11111222 
DISL,ioos:station:DISL:BSCA:1,2018-05-28T20:30:00Z,30.3288,-87.8293,0.0,27.49,11111222 
DISL,ioos:station:DISL:BSCA:1,2018-05-28T21:30:00Z,30.3288,-87.8293,0.0,27.57,11111222 
DISL,ioos:station:DISL:BSCA:1,2018-05-28T23:00:00Z,30.3288,-87.8293,0.0,27.56,11111222 
DISL,ioos:station:DISL:BSCA:1,2018-05-28T23:30:00Z,30.3288,-87.8293,0.0,27.62,11111222 
DISL,ioos:station:DISL:BSCA:1,2018-05-29T00:30:00Z,30.3288,-87.8293,0.0,27.55,11111222 
DISL,ioos:station:DISL:BSCA:1,2018-05-29T01:00:00Z,30.3288,-87.8293,0.0,27.52,11111222 
DISL,ioos:station:DISL:BSCA:1,2018-05-29T16:00:00Z,30.3288,-87.8293,0.0,26.85,11111222 
 
DISCLAIMER: The Gulf of Mexico Coastal and Ocean Observing (GCOOS) Data Portal aggregates data from the regional data providers for the convenience of all data users. Data published on this website should not be used for navigation or certain other uses as we cannot guarantee data accuracy or availability. The data and delivery services are provided 'as is' without warranty of any kind. Data Source: Gulf of Mexico Coastal Ocean Observing System Data Portal (http://data.gcoos.org/) 
